Bei uns kannst du mitfliegen! Besuche uns und lerne uns kennen - als Gast, Pilot oder jemand der es werden möchte.

Kölner Klub für Luftsport e.V.

KKFL.de

Ausbildung – Fliegen – Abenteuer

Ausbildung im KKFL

Ausbildung

Fliegen lernen im Verein
Der KKFL.de bietet eine effiziente, schnelle Ausbildung zur Pivatpilotenlizenz (PPL) in verschiedenen Ausprägungen an. Nach der Ausbildung können diverse Ergänzungen vom Verstellpropeller bis hin zu Nachtflug oder das Fliegen nach Instrumentenflugregeln (IFR) angeschlossen werden.
Fliegen im Verein ist günstig!

Unsere Flotte

Cessna 172 S

D-EOCD
Die Cessna ist als schnelle Schul- und Reisemaschine gleichsam beliebt. Unsere vereins-eigene Flotte sorgt für Abwechlung bei den Piloten und unsere Werft senkt Kosten. In der Ausbildung dürfen Schüler über 'ihre Maschine' mit entscheiden.

Cessna 172 R

D-EFPB

Piper PA 28 II

D-EFPA

Aquila A210

D-EAQJ

Piper PA 28 II

D-ELFF

Flugplatz Hangelar


[Quelle: ADDS]
METAR
EDDK 141820Z 25014KT 9999 FEW036 06/02 Q0999 TEMPO 25015G25KT =
EDDK 141700Z 1418/1524 23015G30KT 9999 SCT030 BECMG 1418/1421 18009KT TEMPO 1502/1505 RA BECMG 1504/1506 24012KT TEMPO 1504/1511 25015G25KT TEMPO 1505/1509 SHRA BKN020TCU BECMG 1515/1517 16007KT
TAF
EDDK 141700Z 1418/1524 23015G30KT 9999 SCT030 BECMG 1418/1421 18009KT TEMPO 1502/1505 RA BECMG 1504/1506 24012KT TEMPO 1504/1511 25015G25KT TEMPO 1505/1509 SHRA BKN020TCU BECMG 1515/1517 16007KT =
SR / SS: 07:25 / 15:25 UTC (EDKB 2019-12-14)

Du willst fliegen?

Während unserer Bürozeiten und auch dazwischen sind wir für deine Fragen da.
Bitte kontaktiere den Verein unter den angegebenen Adressen.
© 2019 - Kölner Klub für Luftsport e.V.
Bonn / Hangelar - EDKB - Germany
Cookies erleichtern die Bereitstellung unserer Dienste. Mit der Nutzung unserer Dienste erklären Sie sich damit einverstanden, dass wir Cookies verwenden.